Flag for Austria Weather past 2 weeks in Bruck an der Leitha, Lower Austria, Austria

Now
68 °F

Overcast.


Feels Like: 68 °F
Forecast: 64 / 89 °F
Wind: N/A

Location: Wien / Schwechat-Flughafen

Current Time: Aug 3, 2015 at 10:56:39 AM

Latest Report: Aug 3, 2015 at 10:00 AM


Visibility: 11 mi

Pressure: 30.11 "Hg

Humidity: 82%

Dew point: 62 °F

Location of Bruck an der LeithaLocation

Historic Weather in Bruck an der Leitha — Graph

°F

Bruck an der Leitha temperature yesterday

Maximum temperature yesterday: 75 °F (at 5:00 PM)
Minimum temperature yesterday: 64 °F (at 8:00 AM)
Average temperature yesterday: 68 °F

Past Weeks' High & Low Weather Summary

 TemperatureHumidityPressure
High97 °F (Jul 19, 4:00 PM)95% (Jul 29, 11:00 PM)30.14 "Hg (Jul 29, 11:00 PM)
Low56 °F (Aug 1, 4:00 AM)23% (Jul 26, 6:00 PM)29.70 "Hg (Jul 25, 4:00 PM)
Average73 °F60%29.90 "Hg
* Reported Jul 19 9:00 AM — Aug 3 9:00 AM, Bruck an der Leitha, Weather by CustomWeather, © 2015

Note: Actual official high and low records may vary slightly from our data, if they occured in-between our weather recording intervals... More about our weather records

Advertising

Bruck an der Leitha weather history for previous 24 hours

 ConditionsComfort  
Time TempWeatherWind HumidityBarometerVisibility
9:00 AM
Mon, Aug 3
66 °FOvercast.N/A90%30.10 "Hg7 mi
8:00 AM65 °FOvercast.N/A89%30.11 "Hg9 mi
7:00 AM64 °FOvercast.N/A93%30.11 "Hg6 mi
4:00 AM63 °FOvercast.N/A93%30.11 "Hg5 mi
3:00 AM63 °FOvercast.N/A95%30.11 "Hg4 mi
2:00 AM64 °FOvercast.3 mph87%30.11 "Hg10 mi
1:00 AM65 °FLight rain. Overcast.N/A88%30.12 "Hg11 mi
12:00 AM65 °FRain showers. Overcast.N/A86%30.12 "Hg11 mi
10:00 PM
Sun, Aug 2
66 °FSprinkles. Overcast.N/A82%30.14 "Hg7 mi
9:00 PM67 °FOvercast.6 mph77%30.11 "Hg25 mi
8:00 PM68 °FOvercast.5 mph75%30.11 "Hg28 mi
7:00 PM70 °FOvercast.6 mph70%30.10 "Hg13 mi
6:00 PM71 °FOvercast.6 mph67%30.10 "Hg19 mi
5:00 PM75 °FOvercast.6 mph60%30.09 "Hg18 mi
4:00 PM73 °FOvercast.5 mph65%30.10 "Hg15 mi
3:00 PM71 °FOvercast.3 mph66%30.10 "Hg17 mi
2:00 PM70 °FRain showers. Overcast.N/A59%30.11 "Hg25 mi
1:00 PM68 °FOvercast.N/A65%30.10 "Hg19 mi
12:00 PM71 °FRain showers. Overcast.N/A50%30.09 "Hg19 mi
11:00 AM70 °FOvercast.N/A54%30.09 "Hg22 mi
10:00 AM68 °FOvercast.N/A59%30.08 "Hg22 mi
Weather by CustomWeather, © 2015

See weather overviewHow to use our weather pages